AirNav   TITAN Aviation Fuels
 
 1105 users online  

MO55 SSM Health St Louis University Hospital Heliport
St Louis, Missouri, USA

GOING TO ST LOUIS?


FAA INFORMATION EFFECTIVE 22 APRIL 2021

Location

FAA Identifier: MO55
Lat/Long: 38-37-14.4600N 090-14-23.7800W
38-37.241000N 090-14.396333W
38.6206833,-90.2399389
(estimated)
Elevation: 550 ft. / 168 m (estimated)
Variation: 02E (1985)
From city: 3 miles W of ST LOUIS, MO
Time zone: UTC -5 (UTC -6 during Standard Time)
Zip code: 63104

Heliport Operations

Heliport use: Private use, MEDICAL.
Activation date: 11/1988
Control tower: no
ARTCC: KANSAS CITY CENTER
FSS: SAINT LOUIS FLIGHT SERVICE STATION
Attendance: CONTINUOUS
Wind indicator: yes
Segmented circle: no
Lights: ACTVT FLOOD LGTS - 123.050.
Beacon: white-green-yellow (heliport)
24 HRS.

Heliport Communications

WX ASOS at CPS (5 nm SE): PHONE 618-332-0001
WX ASOS at STL (10 nm NW): 125.025 (314-890-4790)
WX AWOS-3 at ALN (19 nm NE): 128.0 (618-259-7231)
WX ASOS at SUS (19 nm W): 134.8 (314-890-7255)

Nearby radio navigation aids

VOR radial/distance  VOR name  Freq  Var
TOYr241/16.6TROY VORTAC116.0004E
STLr141/18.3ST LOUIS VORTAC117.4001E
FTZr092/34.5FORISTELL VORTAC110.8005E

 
NDB name  Hdg/Dist  Freq  Var  ID
ACORE306/10.435000ECP -.-. .--.
EAVES104/14.822701WFZ ..-. --..
CIVIC MEMORIAL209/18.426301WCVM -.-. ...- --

Heliport Services

Runway Information

Helipad H1

Dimensions: 50 x 50 ft. / 15 x 15 m
Surface: metal
ROOFTOP.
Runway edge lights: FLD
Latitude: 38-37.241000N
Longitude: 090-14.396333W
Elevation: 550.0 ft.
Traffic pattern: leftleft

Heliport Ownership and Management from official FAA records

Ownership: Privately-owned
Owner: SSM HEALTH ST. LOUIS UNIV. HOSPITAL
1015 CORPORATE SQUARE DR.
ST LOUIS, MO 63132
Phone (314) 989-2895
Manager: JOHN O'BRIEN
1015 CORPORATE SQ DR., SUITE 160
ST LOUIS, MO 63132
Phone (314) 989-2895

Additional Remarks

A52-H1 30' BLDG (LGTD) 150' W & 30' SIGN STRUCTURE 35' S OF PAD.
DUE TO MULTIPLE OBSTRUCTIONS WITHIN H1 TLOF, FATO, AND SAFETY AREAS, NO CLEAR INGRESS/EGRESS EXISTS FOR THIS HELIPORT. EXERCISE CAUTION.
FOR CD CTC ST LOUIS APCH AT 314-890-1018.

Instrument Procedures

There are no published instrument procedures at MO55.

Some nearby airports with instrument procedures:

KCPS - St Louis Downtown Airport (5 nm SE)
KSTL - St Louis Lambert International Airport (10 nm NW)
1H0 - Creve Coeur Airport (14 nm NW)
KALN - St Louis Regional Airport (19 nm NE)
KSUS - Spirit of St Louis Airport (19 nm W)
KBLV - Scott Air Force Base/MidAmerica Airport (20 nm E)
 
Loc | Ops | Rwys | IFR | FBO | Links
Com | Nav | Svcs | Stats | Notes
Area around MO55 (SSM Health St Louis University Hospital Heliport)
 
Road maps at: MapQuest Bing Google
 
Aerial photo
No photo
 
Sectional chart

 
Airport distance calculator
Flying to SSM Health St Louis University Hospital Heliport? Find the distance to fly.

From to MO55

Sunrise and sunset
Times for 08-May-2021
 Local
(UTC-5)
 Zulu
(UTC)
Morning civil twilight05:2810:28
Sunrise05:5710:57
Sunset19:5800:58
Evening civil twilight20:2701:27

Current date and time
Zulu (UTC)  08-May-2021 20:11:48
Local (UTC-5)  08-May-2021 15:11:48
 
METAR
KCPS 
5nm SE 
081953Z 12011G21KT 10SM OVC039 13/04 A2998 RMK AO2 PRESFR SLP151 T01330039
KSTL 
10nm NW 
081951Z 12018G23KT 10SM BKN038 BKN080 OVC200 14/03 A2997 RMK AO2 PRESFR SLP147 T01440033
KALN 
18nm NE 
081950Z 09013KT 10SM OVC044 12/05 A3000
KSUS 
19nm W 
081954Z 09014G19KT 10SM FEW070 SCT090 BKN110 15/04 A2995 RMK AO2 PK WND 10026/1914 SLP140 T01500044
KBLV 
20nm E 
081956Z AUTO 13012G16KT 10SM OVC042 12/05 A2999 RMK AO2 SLP159 T01220047 $
TAF
KCPS 
5nm SE 
081738Z 0818/0918 12014G23KT P6SM VCSH OVC050 FM082100 12014G24KT P6SM BKN040 FM090300 12015G25KT P6SM VCSH OVC030 FM091000 16015G25KT 5SM SHRA VCTS OVC025CB TEMPO 0911/0913 2SM +TSRA OVC010CB FM091500 27014G24KT P6SM -SHRA OVC015
KSTL 
10nm NW 
081738Z 0818/0924 12014G23KT P6SM VCSH OVC050 FM082100 12014G24KT P6SM BKN040 FM090300 12015G25KT P6SM VCSH OVC030 FM091000 16015G25KT 5SM SHRA VCTS OVC025CB TEMPO 0911/0913 2SM +TSRA OVC010CB FM091500 27014G24KT P6SM -SHRA OVC015 FM091800 34013G23KT P6SM OVC020
KSUS 
19nm W 
081738Z 0818/0918 12014G23KT P6SM VCSH OVC050 FM082100 12014G24KT P6SM BKN040 FM090300 12015G25KT P6SM VCSH OVC030 FM091000 16015G25KT 5SM SHRA VCTS OVC025CB TEMPO 0911/0913 2SM +TSRA OVC010CB FM091500 27014G24KT P6SM -SHRA OVC015
KBLV 
20nm E 
081600Z 0816/0922 12012KT 9999 BKN040 QNH3005INS BECMG 0820/0821 12010G15KT 9999 BKN020 OVC040 QNH2996INS BECMG 0902/0903 10009KT 8000 -RA OVC020 QNH2974INS BECMG 0908/0909 15015KT 8000 -RA OVC015 QNH2959INS TEMPO 0910/0913 6000 -TSRA OVC007CB BECMG 0913/0914 23012KT 8000 -RA OVC007 QNH2956INS TEMPO 0915/0918 30020G25KT 6000 -TSRA OVC005CB BECMG 0917/0918 32020G25KT 9000 -RA OVC010 QNH2970INS BECMG 0920/0921 34015G20KT 9999 NSW OVC020 QNH2983INS TX14/0914Z TN09/0912Z
NOTAMs
Click for the latest NOTAMs
NOTAMs are issued by the DoD/FAA and will open in a separate window not controlled by AirNav.

 

 
 

Would you like to see your business listed on this page?

 If your business provides an interesting product or service to pilots, flight crews, aircraft, or users of the SSM Health St Louis University Hospital Heliport, you should consider listing it here.  To start the listing process, click on the button below
 
Add a business
 

Other Pages about SSM Health St Louis University Hospital Heliport

Update a link
 
Copyright © AirNav, LLC. All rights reserved. Privacy Policy  Contact